Location: North Smoke Tower Site
(30.5430°N, 82.3390°W)
Time: 04:24:23
(UTC-04:00)

Cosmos 1980 Rocket - Visible Passes

Search period start: 02 October 2014 00:00
Search period end: 12 October 2014 00:00
Orbit: 828 x 852 km, 71.0° (Epoch: 01 October)

Date Brightness Start Highest point End Pass type
(mag) Time Alt. Az. Time Alt. Az. Time Alt. Az.
02 Oct 5.1 05:58:04 10° NNE 06:00:31 13° ENE 06:02:58 10° E visible
02 Oct 2.1 20:40:20 10° S 20:45:55 66° ESE 20:51:34 10° NNE visible
02 Oct 4.9 22:27:31 10° W 22:30:23 14° WNW 22:33:16 10° NNW visible
03 Oct 5.2 05:42:51 10° NE 05:44:53 12° ENE 05:46:54 10° ENE visible
03 Oct 2.2 20:24:47 10° S 20:30:21 61° ESE 20:35:57 10° NNE visible
03 Oct 4.9 22:11:35 10° W 22:14:45 15° WNW 22:17:55 10° NNW visible
04 Oct 5.3 05:27:47 10° NE 05:29:14 11° NE 05:30:41 10° ENE visible
04 Oct 2.2 20:09:15 10° S 20:14:46 57° ESE 20:20:20 10° NNE visible
04 Oct 4.8 21:55:41 10° W 21:59:07 16° WNW 22:02:33 10° NNW visible
05 Oct 5.4 05:13:20 10° NE 05:13:35 10° NE 05:13:50 10° ENE visible
05 Oct 2.2 06:52:36 10° NNW 06:58:17 88° WSW 07:03:54 10° SSE visible
05 Oct 2.3 19:53:44 10° S 19:59:12 53° ESE 20:04:43 10° NNE visible
05 Oct 4.8 21:39:50 10° W 21:43:29 17° WNW 21:47:09 10° NNW visible
06 Oct 2.3 06:37:01 10° NNW 06:42:42 86° ENE 06:48:19 10° SSE visible
06 Oct 2.4 19:38:12 10° S 19:43:37 49° ESE 19:49:05 10° NNE visible
06 Oct 4.7 21:23:59 10° WSW 21:27:51 19° WNW 21:31:44 10° NNW visible
07 Oct 2.3 06:21:26 10° NNW 06:27:07 80° ENE 06:32:43 10° SSE visible
07 Oct 2.5 19:22:42 10° S 19:28:03 45° ESE 19:33:26 10° NE visible
07 Oct 4.7 21:08:10 10° WSW 21:12:13 20° WNW 21:16:18 10° NNW visible
08 Oct 2.4 06:05:51 10° NNW 06:11:31 75° ENE 06:17:07 10° SSE visible
08 Oct 4.6 20:52:22 10° WSW 20:56:35 21° WNW 21:00:50 10° NNW visible
09 Oct 2.4 05:50:17 10° NNW 05:55:55 69° ENE 06:01:30 10° SSE visible
09 Oct 4.6 20:36:35 10° WSW 20:40:58 23° WNW 20:45:22 10° N visible
10 Oct 2.5 05:34:42 10° NNW 05:40:20 64° ENE 05:45:52 10° SSE visible
10 Oct 4.5 20:20:48 10° WSW 20:25:20 24° WNW 20:29:54 10° N visible
11 Oct 2.6 05:19:08 10° NNW 05:24:44 60° ENE 05:30:14 10° SSE visible
11 Oct 4.4 20:05:03 10° WSW 20:09:43 26° WNW 20:14:25 10° N visible
